Location: Wellington
(41.3000°S, 174.7830°E)
Time: 00:51:20
(UTC+12:00)

USA 238 - Pass Details

Date: 24 January 2019
Orbit: 1043 x 1170 km, 63.4° (Epoch: 15 April)

Event Time Altitude Azimuth Distance (km) Brightness Sun altitude
Rises 22:14:08 0° 355° (N) 4,034 6.4 -14.0°
Reaches altitude 10° 22:17:05 10° 3° (N) 3,076 5.7 -14.4°
Maximum altitude 22:23:42 37° 67° (ENE) 1,726 4.3 -15.3°
Drops below altitude 10° 22:30:15 10° 130° (SE) 3,051 6.0 -16.2°
Sets 22:33:08 0° 138° (SE) 3,998 6.8 -16.5°
